This is the latest recevied weather packets stored in our database for station/object DO1SN-13. If no packets are shown the sender has not sent any weather packets the latest 10 day(s).
| Time | Temp. | Humidity | Pressure | Rain* | Wind** | Luminosity | Snow |
|---|---|---|---|---|---|---|---|
| 1787828079 | 31.67° C | - | 1017.3 hPa | 0 mm | - | - | - |
| 1787827715 | 31.67° C | - | 1017.4 hPa | 0 mm | - | - | - |
| 1787827351 | 32.22° C | - | 1017.3 hPa | 0 mm | - | - | - |
| 1787826986 | 35° C | - | 1017.3 hPa | 0 mm | - | - | - |
| 1787826622 | 37.78° C | - | 1017.2 hPa | 0 mm | - | - | - |
| 1787826258 | 35.56° C | - | 1017.5 hPa | 0 mm | - | - | - |
| 1787825894 | 37.22° C | - | 1017.4 hPa | 0 mm | - | - | - |
| 1787825530 | 35° C | - | 1017.4 hPa | 0 mm | - | - | - |
| 1787825165 | 34.44° C | - | 1017.5 hPa | 0 mm | - | - | - |
| 1787824801 | 35.56° C | - | 1017.4 hPa | 0 mm | - | - | - |
| 1787824437 | 35.56° C | - | 1017.5 hPa | 0 mm | - | - | - |
| 1787824073 | 32.78° C | - | 1017.5 hPa | 0 mm | - | - | - |
| 1787823709 | 34.44° C | - | 1017.7 hPa | 0 mm | - | - | - |
| 1787823345 | 35° C | - | 1017.6 hPa | 0 mm | - | - | - |
| 1787822980 | 34.44° C | - | 1017.6 hPa | 0 mm | - | - | - |
| 1787822616 | 34.44° C | - | 1017.6 hPa | 0 mm | - | - | - |
| 1787822252 | 33.89° C | - | 1017.7 hPa | 0 mm | - | - | - |
| 1787821888 | 32.78° C | - | 1017.6 hPa | 0 mm | - | - | - |
| 1787821524 | 32.22° C | - | 1017.5 hPa | 0 mm | - | - | - |
| 1787821159 | 33.33° C | - | 1017.3 hPa | 0 mm | - | - | - |
| 1787820795 | 33.33° C | - | 1017.2 hPa | 0 mm | - | - | - |
| 1787820681 | 32.78° C | - | 1017.4 hPa | 0 mm | - | - | - |
| 1787820066 | 32.22° C | - | 1017.7 hPa | 0 mm | - | - | - |
| 1787819701 | 31.11° C | - | 1017.7 hPa | 0 mm | - | - | - |
| 1787819337 | 30° C | - | 1018 hPa | 0 mm | - | - | - |
* Rain latest hour (hover to see other rain measurements)
** Current wind speed in m/s (hover to see current wind gust speed)